Location: Ay?beleni
(36.6500°N, 30.3000°E)
Time: 16:42:17
(UTC+00:00)

In-Cosmos 22 Rocket - Visible Passes

Search period start: 06 August 2020 00:00
Search period end: 16 August 2020 00:00
Orbit: 791 x 887 km, 81.2° (Epoch: 06 August)

Date Brightness Start Highest point End Pass type
(mag) Time Alt. Az. Time Alt. Az. Time Alt. Az.
06 Aug 7.4 01:51:25 10° NE 01:54:33 15° ENE 01:57:40 10° E visible
07 Aug 7.5 01:36:40 10° NE 01:39:00 12° ENE 01:41:19 10° E visible
08 Aug 7.7 01:22:39 10° ENE 01:23:26 10° ENE 01:24:14 10° ENE visible
10 Aug 4.9 02:30:17 10° N 02:36:06 64° E 02:41:49 10° SSE visible
10 Aug 8.0 17:22:37 10° WNW 17:23:36 10° WNW 17:24:36 10° NW visible
11 Aug 5.2 02:14:56 10° N 02:20:38 54° ENE 02:26:17 10° SSE visible
12 Aug 5.5 01:59:35 10° N 02:05:11 46° ENE 02:10:42 10° SSE visible
13 Aug 5.7 01:44:16 10° N 01:49:43 39° ENE 01:55:05 10° SE visible
14 Aug 6.0 01:28:59 10° N 01:34:15 34° ENE 01:39:25 10° SE visible
15 Aug 6.2 01:13:43 10° NNE 01:18:45 29° ENE 01:23:41 10° SE visible
